Tracking 26198 objects as of 1-Oct-2022
HD Live streaming from Space Station
objects crossing your sky now

COSMOS 1109 DEB

Track COSMOS 1109 DEB now!


NORAD ID: 32979
Int'l Code: 1979-058U
Perigee: 4,275.6 km
Apogee: 36,522.9 km
Inclination: 72.0 °
Period: 726.5 minutes
Semi major axis: 26770 km
RCS: 0.0317 m2 (small)
Launch date: June 27, 1979
Source: Commonwealth of Independent States (former USSR) (CIS)
Launch site: PLESETSK MISSILE AND SPACE COMPLEX (PKMTR)

Note: This is SATELLITE DEBRIS
aabbcc
Your satellite tracking list
Your tracking list is empty




NASA's NSSDC Master Catalog

Two Line Element Set (TLE):
1 32979U 79058U   22266.32820594  .00000567  00000-0  00000-0 0  9998
2 32979  72.0468  63.9564 6022982 162.0863 235.1509  1.98209419  9330
Source of the keplerian elements: AFSPC